Regional Weather Roundup
Issued by NWS

Home | Current Version | Previous Version | Graphics & Text | Print | Product List | Glossary On
Versions: 1 2 3 4 5 6 7 8 9 10 11 12 13 14 15 16 17 18 19 20 21 22 23 24 25 26 27 28 29 30 31 32 33 34 35 36 37 38 39 40 41 42 43 44 45 46 47 48 49 50
000
ASUS43 KLSX 280007
RWRMO

WEATHER SUMMARY FOR MISSOURI
NATIONAL WEATHER SERVICE SPRINGFIELD MO
600 PM CST FRI FEB 27 2015

NOTE: "FAIR" INDICATES FEW OR NO CLOUDS BELOW 12,000 FEET WITH NO
       SIGNIFICANT WEATHER AND/OR OBSTRUCTIONS TO VISIBILITY.
       CURRENT SKY AND/OR WEATHER CONDITIONS ARE NOT AVAILABLE FOR
       CHILLICOTHE AND FARMINGTON.

MOZ001>031-035>038-043-044-053-054-280100-
...NORTHERN AND WESTERN MISSOURI...

CITY           SKY/WX    TMP DP  RH WIND       PRES   REMARKS
KANSAS CTY INT CLOUDY    17   0  47 SE5       30.54S WCI  10
6HR MIN TEMP:  11; 6HR MAX TEMP:  18;

KANSAS C DTWN  CLOUDY    19   1  45 NE8       30.57R WCI   9
6HR MIN TEMP:  14; 6HR MAX TEMP:  19;

LEE`S SUMMIT   CLOUDY    18   1  47 SE5       30.55R WCI  11
6HR MIN TEMP:  13; 6HR MAX TEMP:  19;

ST JOSEPH      CLOUDY    19   2  47 S6        30.56S WCI  11
6HR MIN TEMP:  13; 6HR MAX TEMP:  20;

CHILLICOTHE      N/A     16   2  54 CALM      30.59S
6HR MIN TEMP:  11; 6HR MAX TEMP:  18;

KIRKSVILLE     CLEAR     14   1  56 E7        30.57S WCI   4
6HR MIN TEMP:  10; 6HR MAX TEMP:  18;


$$
MOZ066>068-077>081-088>096-101>105-280100-
...SOUTHWEST MISSOURI...

CITY           SKY/WX    TMP DP  RH WIND       PRES   REMARKS
SPRINGFIELD    CLOUDY    22   2  42 SE9       30.48S WCI  12
6HR MIN TEMP:  17; 6HR MAX TEMP:  23;

JOPLIN         LGT SNOW  21   4  47 SE8       30.52R WCI  11
6HR MIN TEMP:  18; 6HR MAX TEMP:  22; 6HR PCP: TRACE;


$$
MOZ032>034-039>042-045>050-055>058-069>072-280100-
...CENTRAL MISSOURI...

CITY           SKY/WX    TMP DP  RH WIND       PRES   REMARKS
COLUMBIA       MOCLDY    18   4  54 NE10      30.57R WCI   6
6HR MIN TEMP:  16; 6HR MAX TEMP:  22;

JEFFERSON CITY CLOUDY    22  -2  35 SE7       30.59S WCI  13
6HR MIN TEMP:  15; 6HR MAX TEMP:  23;

ROLLA          CLOUDY    20   0  41 E5        30.52S WCI  13
6HR MIN TEMP:  16; 6HR MAX TEMP:  21;

SEDALIA        CLOUDY    20   2  45 E6        30.57S WCI  12
6HR MIN TEMP:  16; 6HR MAX TEMP:  22; 6HR PCP: TRACE;

WHITEMAN AFB   CLOUDY    19   3  50 N6        30.55S WCI  11
WARRENSBURG    CLOUDY    19   3  49 N5        30.57S WCI  13
OSAGE BEACH    MOCLDY    19   0  42 E5        30.55S WCI  13

$$
MOZ051-052-059>065-280100-
...EAST CENTRAL MISSOURI...

CITY           SKY/WX    TMP DP  RH WIND       PRES   REMARKS
ST LOUIS INTL  MOCLDY    17  -3  41 NE6       30.63R WCI   9
6HR MIN TEMP:  15; 6HR MAX TEMP:  20;

SPIRIT OF STL  MOCLDY    17   0  47 NE6       30.63R WCI   9
6HR MIN TEMP:  15; 6HR MAX TEMP:  21;

ST CHARLES     PTCLDY    14   0  53 NE7       30.65R WCI   4
6HR MIN TEMP:  11; 6HR MAX TEMP:  17;


$$
MOZ072>076-082>087-097>100-106>115-280100-
...SOUTH CENTRAL AND SOUTHEAST MISSOURI...

CITY           SKY/WX    TMP DP  RH WIND       PRES   REMARKS
CAPE GIRARDEAU CLOUDY    23   9  55 NE7       30.62S WCI  15
6HR MIN TEMP:  20; 6HR MAX TEMP:  24;

FARMINGTON     CLOUDY    19   5  53 SE8       30.59F WCI   9
6HR MIN TEMP:  16; 6HR MAX TEMP:  21;

POPLAR BLUFF   CLOUDY    22   8  55 E7        30.61F WCI  13
6HR MIN TEMP:  19; 6HR MAX TEMP:  22;

WEST PLAINS    CLOUDY    21   0  39 E3        30.52S
6HR MIN TEMP:  17; 6HR MAX TEMP:  21;


$$


USA.gov is the U.S. government's official web portal to all federal, state and local government web resources and services.